Weather History for KIKV - October, 2012

Change the Weather History Date:

Saturday, October 6, 2012

  Actual Average (KDSM) Record (KDSM)
Temperature  
Mean Temperature 37 °F 57 °F  
Max Temperature 44 °F 67 °F 94 °F (1963)
Min Temperature 30 °F 46 °F 24 °F (1952)
Degree Days  
Heating Degree Days 28 9  
Month to date heating degree days 49  
Since 1 July heating degree days 149  
Cooling Degree Days 0 1  
Month to date cooling degree days 6  
Year to date cooling degree days 1058  
Moisture  
Dew Point 23 °F    
Average Humidity 54    
Maximum Humidity 86    
Minimum Humidity 39    
Precipitation  
Precipitation 0.00 in 0.08 in 1.24 in (1922)
Month to date precipitation 0.53  
Year to date precipitation 30.30  
Snow  
Snow 0.00 in 0.00 in - ()
Month to date snowfall 0.0  
Since 1 July snowfall 0.0  
Since 1 September snowfall 0.0  
Snow Depth -    
Sea Level Pressure  
Sea Level Pressure 30.27 in    
Wind  
Wind Speed 8 mph (NW)    
Max Wind Speed 18 mph    
Max Gust Speed 25 mph    
Visibility 10 miles    
Events      
T = Trace of Precipitation, MM = Missing Value Source: NWS Daily Summary

Daily Weather History Graph

Daily Weather History Graph

Search for Another Location

Airport or City:

Trip Planner

Search our weather history database for the weather conditions in past years. The results will help you decide how hot, cold, wet, or windy it might be!

Date:

Astronomy

Oct. 06, 2012 Rise Set
Actual Time 7:17 AM CDT 6:46 PM CDT
Civil Twilight 6:49 AM CDT 7:14 PM CDT
Nautical Twilight 6:17 AM CDT 7:46 PM CDT
Astronomical Twilight 5:44 AM CDT 8:18 PM CDT
Moon 10:59 PM CDT (10/6) 1:15 PM CDT (10/6)
Length of Visible Light 12h 25m
Length of Day
11h 29m
Waning Gibbous, 65% of the Moon is Illuminated
Oct 6
Waning Gibbous
Oct 8
Last Quarter
Oct 15
New
Oct 21
First Quarter
Oct 29
Full

Hourly Weather History & Observations

Time (CDT) Temp. Windchill Dew Point Humidity Pressure Visibility Wind Dir Wind Speed Gust Speed Precip Events Conditions
12:15 AM 37.4 °F 32.1 °F 15.8 °F 41% 30.22 in 10.0 mi WNW 6.9 mph - N/A   Clear
12:35 AM 39.2 °F 34.2 °F 15.8 °F 39% 30.22 in 10.0 mi NW 6.9 mph - N/A   Clear
12:55 AM 39.2 °F 34.2 °F 15.8 °F 39% 30.22 in 10.0 mi NW 6.9 mph - N/A   Clear
1:15 AM 37.4 °F 32.1 °F 17.6 °F 45% 30.23 in 10.0 mi WNW 6.9 mph - N/A   Clear
1:35 AM 35.6 °F 30.7 °F 19.4 °F 52% 30.24 in 10.0 mi WNW 5.8 mph - N/A   Clear
1:55 AM 35.6 °F 30.7 °F 19.4 °F 52% 30.24 in 10.0 mi WNW 5.8 mph - N/A   Clear
2:15 AM 33.8 °F 28.6 °F 21.2 °F 60% 30.24 in 10.0 mi WNW 5.8 mph - N/A   Clear
2:35 AM 33.8 °F 27.7 °F 21.2 °F 60% 30.24 in 10.0 mi WNW 6.9 mph - N/A   Clear
2:55 AM 33.8 °F 27.7 °F 21.2 °F 60% 30.24 in 10.0 mi WNW 6.9 mph - N/A   Clear
3:15 AM 33.8 °F 28.6 °F 21.2 °F 60% 30.25 in 10.0 mi West 5.8 mph - N/A   Clear
3:35 AM 33.8 °F 27.0 °F 21.2 °F 60% 30.25 in 10.0 mi West 8.1 mph - N/A   Clear
3:55 AM 33.8 °F 29.6 °F 21.2 °F 60% 30.25 in 10.0 mi WNW 4.6 mph - N/A   Clear
4:35 AM 30.2 °F 22.6 °F 26.6 °F 86% 30.25 in 10.0 mi West 8.1 mph - N/A   Clear
4:55 AM 32.0 °F 25.6 °F 24.8 °F 75% 30.24 in 10.0 mi WNW 6.9 mph - N/A   Clear
5:15 AM 33.8 °F 25.8 °F 21.2 °F 60% 30.24 in 10.0 mi WNW 10.4 mph - N/A   Clear
5:35 AM 32.0 °F 23.6 °F 21.2 °F 64% 30.24 in 10.0 mi WNW 10.4 mph - N/A   Clear
5:55 AM 30.2 °F 22.6 °F 23.0 °F 75% 30.24 in 10.0 mi WNW 8.1 mph - N/A   Clear
6:15 AM 30.2 °F 23.4 °F 23.0 °F 75% 30.24 in 10.0 mi WNW 6.9 mph - N/A   Clear
6:35 AM 30.2 °F 23.4 °F 23.0 °F 75% 30.24 in 10.0 mi WNW 6.9 mph - N/A   Clear
6:55 AM 30.2 °F 22.6 °F 24.8 °F 80% 30.25 in 10.0 mi WNW 8.1 mph - N/A   Clear
7:15 AM 30.2 °F 21.9 °F 24.8 °F 80% 30.26 in 10.0 mi WNW 9.2 mph - N/A   Clear
7:35 AM 30.2 °F 22.6 °F 24.8 °F 80% 30.27 in 10.0 mi WNW 8.1 mph - N/A   Clear
7:55 AM 32.0 °F 24.8 °F 24.8 °F 75% 30.28 in 10.0 mi WNW 8.1 mph - N/A   Clear
8:15 AM 32.0 °F 24.8 °F 24.8 °F 75% 30.29 in 10.0 mi West 8.1 mph - N/A   Clear
8:35 AM 33.8 °F 26.4 °F 26.6 °F 75% 30.29 in 10.0 mi WNW 9.2 mph - N/A   Clear
8:55 AM 35.6 °F 28.6 °F 26.6 °F 70% 30.30 in 10.0 mi NW 9.2 mph - N/A   Clear
9:15 AM 37.4 °F 30.8 °F 26.6 °F 65% 30.30 in 10.0 mi NW 9.2 mph - N/A   Clear
9:35 AM 37.4 °F 30.3 °F 26.6 °F 65% 30.30 in 10.0 mi NW 10.4 mph - N/A   Clear
9:55 AM 39.2 °F 31.2 °F 26.6 °F 61% 30.29 in 10.0 mi NNW 13.8 mph 18.4 mph N/A   Clear
10:15 AM 41.0 °F 33.1 °F 26.6 °F 57% 30.29 in 10.0 mi NNW 15.0 mph 21.9 mph N/A   Mostly Cloudy
10:35 AM 42.8 °F 34.5 °F 24.8 °F 49% 30.30 in 10.0 mi North 18.4 mph 25.3 mph N/A   Mostly Cloudy
10:55 AM 42.8 °F 35.1 °F 24.8 °F 49% 30.31 in 10.0 mi North 16.1 mph 24.2 mph N/A   Overcast
11:15 AM 41.0 °F 33.5 °F 24.8 °F 53% 30.30 in 10.0 mi NNW 13.8 mph 20.7 mph N/A   Overcast
11:35 AM 42.8 °F 36.6 °F 24.8 °F 49% 30.30 in 10.0 mi NNW 11.5 mph - N/A   Overcast
11:55 AM 42.8 °F 35.8 °F 24.8 °F 49% 30.30 in 10.0 mi NNW 13.8 mph 20.7 mph N/A   Overcast
12:15 PM 42.8 °F 36.2 °F 24.8 °F 49% 30.30 in 10.0 mi NNW 12.7 mph - N/A   Overcast
12:35 PM 42.8 °F 38.0 °F 24.8 °F 49% 30.30 in 10.0 mi NW 8.1 mph - N/A   Overcast
12:55 PM 42.8 °F 38.6 °F 24.8 °F 49% 30.29 in 10.0 mi NNW 6.9 mph - N/A   Overcast
1:15 PM 42.8 °F 37.5 °F 24.8 °F 49% 30.29 in 10.0 mi NW 9.2 mph - N/A   Overcast
1:35 PM 42.8 °F 37.5 °F 24.8 °F 49% 30.29 in 10.0 mi NW 9.2 mph 19.6 mph N/A   Overcast
1:55 PM 42.8 °F 37.5 °F 23.0 °F 46% 30.29 in 10.0 mi NW 9.2 mph - N/A   Overcast
2:15 PM 44.6 °F 40.2 °F 24.8 °F 46% 30.28 in 10.0 mi NNW 8.1 mph 11.5 mph N/A   Overcast
2:35 PM 44.6 °F 39.7 °F 24.8 °F 46% 30.27 in 10.0 mi NW 9.2 mph - N/A   Overcast
2:55 PM 44.6 °F 38.8 °F 23.0 °F 43% 30.27 in 10.0 mi NNW 11.5 mph - N/A   Overcast
3:15 PM 44.6 °F 39.2 °F 23.0 °F 43% 30.26 in 10.0 mi NW 10.4 mph - N/A   Overcast
3:35 PM 44.6 °F 38.8 °F 23.0 °F 43% 30.26 in 10.0 mi NW 11.5 mph 19.6 mph N/A   Overcast
3:55 PM 44.6 °F 38.8 °F 21.2 °F 39% 30.26 in 10.0 mi NW 11.5 mph - N/A   Overcast
4:15 PM 44.6 °F 39.7 °F 21.2 °F 39% 30.26 in 10.0 mi NW 9.2 mph - N/A   Overcast
4:35 PM 44.6 °F 40.2 °F 23.0 °F 43% 30.26 in 10.0 mi NNW 8.1 mph - N/A   Overcast
4:55 PM 44.6 °F 40.2 °F 21.2 °F 39% 30.26 in 10.0 mi NNW 8.1 mph - N/A   Overcast
5:15 PM 44.6 °F 39.7 °F 21.2 °F 39% 30.26 in 10.0 mi NW 9.2 mph - N/A   Overcast
5:35 PM 44.6 °F 39.7 °F 21.2 °F 39% 30.26 in 10.0 mi NNW 9.2 mph - N/A   Overcast
5:55 PM 44.6 °F 40.2 °F 21.2 °F 39% 30.26 in 10.0 mi NW 8.1 mph - N/A   Overcast
6:15 PM 44.6 °F 41.4 °F 21.2 °F 39% 30.26 in 10.0 mi NW 5.8 mph - N/A   Overcast
6:35 PM 44.6 °F 40.7 °F 21.2 °F 39% 30.25 in 10.0 mi NNW 6.9 mph - N/A   Overcast
6:55 PM 42.8 °F 39.3 °F 21.2 °F 42% 30.26 in 10.0 mi NNW 5.8 mph - N/A   Overcast
7:15 PM 42.8 °F 38.6 °F 21.2 °F 42% 30.26 in 10.0 mi NNW 6.9 mph - N/A   Overcast
7:35 PM 42.8 °F 38.6 °F 23.0 °F 46% 30.26 in 10.0 mi NNW 6.9 mph - N/A   Overcast
7:55 PM 42.8 °F 39.3 °F 23.0 °F 46% 30.26 in 10.0 mi NNW 5.8 mph - N/A   Overcast
8:15 PM 42.8 °F 39.3 °F 24.8 °F 49% 30.27 in 10.0 mi NNW 5.8 mph - N/A   Overcast
8:35 PM 42.8 °F 39.3 °F 24.8 °F 49% 30.27 in 10.0 mi North 5.8 mph - N/A   Overcast
8:55 PM 42.8 °F 38.6 °F 24.8 °F 49% 30.28 in 10.0 mi NNW 6.9 mph - N/A   Overcast
9:15 PM 42.8 °F 38.6 °F 24.8 °F 49% 30.28 in 10.0 mi NNW 6.9 mph - N/A   Overcast
9:35 PM 41.0 °F 36.4 °F 24.8 °F 53% 30.28 in 10.0 mi NNW 6.9 mph - N/A   Scattered Clouds
9:55 PM 41.0 °F 37.1 °F 21.2 °F 45% 30.28 in 10.0 mi NNW 5.8 mph - N/A   Scattered Clouds
10:15 PM 39.2 °F 35.0 °F 21.2 °F 49% 30.28 in 10.0 mi NNW 5.8 mph - N/A   Scattered Clouds
10:35 PM 39.2 °F 35.9 °F 23.0 °F 52% 30.29 in 10.0 mi NNW 4.6 mph - N/A   Clear
10:55 PM 37.4 °F 34.9 °F 23.0 °F 56% 30.28 in 10.0 mi NW 3.5 mph - N/A   Clear
11:15 PM 37.4 °F 34.9 °F 23.0 °F 56% 30.28 in 10.0 mi NW 3.5 mph - N/A   Clear
11:35 PM 35.6 °F - 24.8 °F 65% 30.28 in 10.0 mi Calm Calm - N/A   Clear
11:55 PM 35.6 °F - 24.8 °F 65% 30.27 in 10.0 mi Calm Calm - N/A   Clear